QPF
0.02 0.02 0.02 0.03 0.01 0.01 0.02 0.03 0.03 0.03 0.05 0.05 0.03 0.02 0.03 0.04 0.03 0.02 0.02 0.03 0.05 0.07 0.08 0.08 0.08 0.09 0.10 0.08 0.03 0.02 0.02 0.02 0.02 0.02 0.01 0.02 0.01 0.01 0.00 0.00 0.00 0.00 0.00
0.01 0.02 0.01 0.01 0.01 0.01 0.01 0.02 0.02 0.03 0.03 0.03 0.03 0.02 0.02 0.02 0.03 0.02 0.02 0.03 0.06 0.07 0.08 0.09 0.10 0.10 0.10 0.09 0.07 0.03 0.02 0.02 0.02 0.01 0.01 0.01 0.01 0.01 0.01 0.00 0.00 0.00 0.00
0.00 0.00 0.00 0.00 0.01 0.00 0.01 0.01 0.01 0.01 0.02 0.02 0.03 0.02 0.02 0.02 0.03 0.02 0.03 0.03 0.05 0.06 0.07 0.10 0.11 0.12 0.11 0.11 0.13 0.10 0.06 0.06 0.04 0.03 0.01 0.01 0.01 0.01 0.01 0.01 0.00 0.00 0.00
0.00 0.00 0.00 0.00 0.00 0.00 0.00 0.01 0.01 0.01 0.02 0.02 0.03 0.03 0.03 0.03 0.03 0.04 0.06 0.04 0.04 0.04 0.06 0.10 0.11 0.11 0.13 0.14 0.16 0.15 0.11 0.08 0.06 0.04 0.04 0.03 0.03 0.02 0.02 0.01 0.01 0.00 0.00
0.00 0.00 0.00 0.00 0.00 0.00 0.00 0.01 0.01 0.01 0.01 0.01 0.02 0.04 0.04 0.03 0.04 0.03 0.05 0.03 0.03 0.03 0.03 0.05 0.08 0.08 0.11 0.15 0.16 0.17 0.15 0.12 0.09 0.06 0.05 0.06 0.06 0.04 0.03 0.02 0.02 0.01 0.00
0.00 0.00 0.00 0.00 0.00 0.00 0.01 0.01 0.01 0.00 0.00 0.00 0.01 0.02 0.02 0.02 0.03 0.02 0.02 0.02 0.01 0.02 0.02 0.03 0.03 0.04 0.07 0.10 0.13 0.15 0.15 0.13 0.11 0.09 0.08 0.07 0.07 0.05 0.04 0.03 0.03 0.03 0.02
0.00 0.00 0.00 0.00 0.00 0.00 0.00 0.00 0.00 0.00 0.00 0.00 0.00 0.01 0.01 0.02 0.01 0.01 0.00 0.01 0.01 0.01 0.01 0.02 0.01 0.01 0.02 0.04 0.06 0.10 0.12 0.13 0.11 0.09 0.09 0.08 0.07 0.06 0.04 0.03 0.04 0.04 0.03
0.00 0.00 0.01 0.00 0.00 0.00 0.00 0.00 0.00 0.00 0.00 0.00 0.00 0.01 0.01 0.01 0.00 0.00 0.00 0.00 0.00 0.00 0.00 0.01 0.01 0.01 0.01 0.01 0.02 0.05 0.07 0.09 0.11 0.10 0.08 0.08 0.08 0.07 0.05 0.04 0.03 0.02 0.03
0.00 0.00 0.00 0.00 0.00 0.00 0.00 0.00 0.00 0.00 0.00 0.00 0.00 0.00 0.00 0.00 0.00 0.00 0.00 0.00 0.00 0.00 0.00 0.00 0.00 0.00 0.00 0.01 0.01 0.02 0.04 0.05 0.08 0.10 0.10 0.08 0.05 0.04 0.05 0.05 0.04 0.03 0.03
0.00 0.00 0.00 0.00 0.00 0.00 0.01 0.00 0.00 0.00 0.00 0.00 0.00 0.00 0.00 0.00 0.00 0.00 0.00 0.00 0.00 0.00 0.00 0.00 0.00 0.00 0.00 0.00 0.00 0.00 0.01 0.02 0.04 0.06 0.08 0.08 0.07 0.05 0.04 0.05 0.07 0.06 0.04
0.00 0.00 0.00 0.00 0.00 0.00 0.00 0.00 0.00 0.00 0.00 0.00 0.00 0.00 0.00 0.00 0.00 0.00 0.00 0.00 0.00 0.00 0.00 0.00 0.00 0.00 0.00 0.00 0.00 0.00 0.00 0.01 0.01 0.03 0.05 0.06 0.06 0.06 0.05 0.05 0.07 0.08 0.08
0.00 0.00 0.00 0.00 0.00 0.00 0.00 0.00 0.00 0.00 0.00 0.00 0.00 0.00 0.00 0.00 0.00 0.00 0.00 0.00 0.00 0.00 0.00 0.00 0.00 0.00 0.00 0.00 0.00 0.01 0.01 0.01 0.01 0.01 0.01 0.02 0.03 0.04 0.05 0.06 0.07 0.08 0.09
0.00 0.00 0.00 0.00 0.00 0.00 0.00 0.00 0.00 0.00 0.00 0.00 0.00 0.00 0.00 0.00 0.00 0.00 0.00 0.00 0.00 0.00 0.00 0.00 0.00 0.00 0.00 0.00 0.00 0.00 0.00 0.00 0.01 0.01 0.01 0.00 0.00 0.01 0.02 0.03 0.04 0.06 0.07
0.01 0.00 0.00 0.00 0.00 0.00 0.00 0.00 0.00 0.00 0.00 0.00 0.00 0.00 0.00 0.00 0.00 0.00 0.00 0.00 0.00 0.00 0.00 0.00 0.00 0.00 0.00 0.00 0.00 0.00 0.00 0.00 0.00 0.00 0.00 0.00 0.00 0.00 0.01 0.01 0.01 0.02 0.02
0.01 0.00 0.00 0.00 0.00 0.00 0.00 0.00 0.00 0.00 0.00 0.00 0.00 0.00 0.00 0.00 0.00 0.00 0.00 0.00 0.00 0.00 0.00 0.00 0.00 0.00 0.00 0.00 0.00 0.00 0.00 0.00 0.00 0.00 0.00 0.00 0.00 0.00 0.00 0.00 0.00 0.00 0.00
0.01 0.01 0.00 0.00 0.00 0.00 0.00 0.00 0.00 0.00 0.00 0.00 0.00 0.00 0.00 0.00 0.00 0.00 0.00 0.00 0.00 0.00 0.00 0.00 0.00 0.00 0.00 0.00 0.00 0.00 0.00 0.00 0.00 0.00 0.00 0.00 0.00 0.00 0.00 0.00 0.00 0.00 0.00
0.01 0.01 0.01 0.01 0.01 0.01 0.00 0.00 0.00 0.00 0.00 0.00 0.00 0.00 0.00 0.00 0.00 0.00 0.00 0.00 0.00 0.00 0.00 0.00 0.00 0.00 0.00 0.00 0.00 0.00 0.00 0.00 0.00 0.00 0.00 0.00 0.00 0.00 0.00 0.00 0.00 0.00 0.00
0.02 0.02 0.02 0.02 0.02 0.01 0.01 0.01 0.01 0.01 0.01 0.01 0.00 0.00 0.00 0.00 0.00 0.00 0.00 0.00 0.00 0.00 0.00 0.00 0.00 0.00 0.00 0.00 0.00 0.00 0.00 0.00 0.00 0.00 0.00 0.00 0.00 0.00 0.00 0.00 0.00 0.00 0.00
0.04 0.03 0.03 0.04 0.03 0.03 0.02 0.02 0.03 0.02 0.02 0.02 0.01 0.01 0.00 0.00 0.00 0.00 0.00 0.00 0.00 0.00 0.00 0.00 0.00 0.00 0.00 0.00 0.00 0.00 0.00 0.00 0.00 0.00 0.00 0.00 0.00 0.00 0.00 0.00 0.00 0.00 0.00
0.07 0.06 0.06 0.06 0.06 0.06 0.05 0.06 0.07 0.07 0.07 0.05 0.04 0.03 0.02 0.01 0.01 0.01 0.01 0.01 0.01 0.01 0.01 0.00 0.00 0.00 0.00 0.00 0.00 0.00 0.00 0.00 0.00 0.00 0.00 0.00 0.00 0.00 0.00 0.00 0.00 0.00 0.00
0.12 0.11 0.09 0.08 0.08 0.09 0.08 0.10 0.12 0.12 0.10 0.08 0.07 0.07 0.06 0.05 0.05 0.04 0.03 0.02 0.02 0.02 0.02 0.01 0.01 0.01 0.00 0.00 0.00 0.00 0.00 0.00 0.00 0.00 0.00 0.00 0.00 0.00 0.00 0.00 0.00 0.00 0.00
0.12 0.10 0.09 0.09 0.10 0.10 0.10 0.08 0.08 0.07 0.07 0.07 0.07 0.07 0.08 0.09 0.08 0.08 0.07 0.06 0.05 0.05 0.04 0.03 0.02 0.01 0.01 0.01 0.01 0.01 0.00 0.00 0.00 0.00 0.00 0.00 0.00 0.00 0.00 0.00 0.00 0.00 0.00
0.08 0.08 0.09 0.10 0.11 0.13 0.12 0.09 0.07 0.07 0.06 0.05 0.06 0.08 0.09 0.10 0.10 0.09 0.10 0.09 0.08 0.08 0.08 0.06 0.04 0.03 0.02 0.02 0.02 0.02 0.01 0.01 0.01 0.00 0.00 0.00 0.00 0.00 0.00 0.00 0.00 0.00 0.00
0.04 0.04 0.05 0.06 0.07 0.08 0.09 0.09 0.09 0.09 0.08 0.08 0.08 0.07 0.08 0.09 0.08 0.06 0.05 0.05 0.05 0.06 0.06 0.05 0.04 0.03 0.03 0.03 0.02 0.02 0.02 0.01 0.01 0.01 0.01 0.00 0.00 0.00 0.00 0.00 0.00 0.00 0.00
0.03 0.03 0.03 0.04 0.05 0.05 0.05 0.06 0.06 0.06 0.06 0.06 0.05 0.05 0.04 0.05 0.05 0.04 0.03 0.03 0.02 0.02 0.03 0.03 0.02 0.02 0.02 0.02 0.02 0.02 0.01 0.01 0.01 0.00 0.01 0.01 0.00 0.00 0.00 0.00 0.00 0.00 0.00
0.01 0.01 0.01 0.01 0.02 0.02 0.04 0.05 0.06 0.06 0.05 0.05 0.04 0.04 0.04 0.04 0.04 0.04 0.03 0.03 0.03 0.02 0.02 0.02 0.02 0.02 0.01 0.01 0.02 0.02 0.02 0.02 0.02 0.01 0.01 0.01 0.01 0.01 0.00 0.00 0.00 0.00 0.00
MSLP
1016.97 1017.06 1017.08 1017.08 1017.10 1017.15 1017.26 1017.43 1017.63 1017.84 1018.03 1018.19 1018.30 1018.37 1018.41 1018.46 1018.53 1018.65 1018.83 1019.05 1019.31 1019.60 1019.89 1020.17 1020.42 1020.66 1020.88 1021.08 1021.28 1021.48 1021.68 1021.89 1022.12 1022.34 1022.57 1022.80 1023.02 1023.22 1023.41 1023.57 1023.70 1023.81 1023.90
1016.97 1017.05 1017.07 1017.09 1017.12 1017.19 1017.33 1017.52 1017.76 1018.02 1018.26 1018.46 1018.61 1018.71 1018.76 1018.79 1018.82 1018.88 1018.98 1019.14 1019.34 1019.59 1019.86 1020.13 1020.40 1020.66 1020.89 1021.10 1021.29 1021.48 1021.67 1021.86 1022.07 1022.30 1022.53 1022.77 1023.01 1023.23 1023.43 1023.61 1023.75 1023.87 1023.96
1016.98 1017.06 1017.11 1017.15 1017.21 1017.32 1017.48 1017.70 1017.97 1018.25 1018.53 1018.77 1018.96 1019.08 1019.14 1019.16 1019.15 1019.15 1019.18 1019.25 1019.38 1019.57 1019.79 1020.04 1020.31 1020.56 1020.80 1021.02 1021.22 1021.40 1021.58 1021.77 1021.97 1022.19 1022.42 1022.67 1022.92 1023.16 1023.38 1023.57 1023.73 1023.86 1023.98
1017.03 1017.13 1017.21 1017.29 1017.39 1017.53 1017.71 1017.95 1018.22 1018.51 1018.81 1019.07 1019.28 1019.43 1019.51 1019.52 1019.49 1019.44 1019.40 1019.39 1019.43 1019.54 1019.70 1019.90 1020.14 1020.39 1020.63 1020.85 1021.06 1021.24 1021.42 1021.60 1021.79 1022.01 1022.24 1022.49 1022.74 1022.99 1023.23 1023.44 1023.62 1023.79 1023.93
1017.12 1017.25 1017.37 1017.50 1017.64 1017.80 1017.99 1018.22 1018.48 1018.76 1019.05 1019.32 1019.54 1019.71 1019.81 1019.83 1019.79 1019.71 1019.61 1019.53 1019.49 1019.51 1019.60 1019.74 1019.93 1020.15 1020.38 1020.60 1020.81 1021.00 1021.18 1021.36 1021.55 1021.76 1021.98 1022.23 1022.49 1022.74 1022.99 1023.22 1023.43 1023.62 1023.80
1017.24 1017.40 1017.57 1017.74 1017.92 1018.10 1018.29 1018.49 1018.72 1018.96 1019.22 1019.47 1019.70 1019.89 1020.01 1020.06 1020.03 1019.94 1019.81 1019.68 1019.57 1019.51 1019.52 1019.59 1019.72 1019.89 1020.10 1020.30 1020.50 1020.69 1020.87 1021.05 1021.24 1021.45 1021.67 1021.91 1022.16 1022.42 1022.67 1022.91 1023.14 1023.36 1023.58
1017.38 1017.57 1017.78 1017.99 1018.20 1018.39 1018.57 1018.74 1018.91 1019.11 1019.32 1019.54 1019.77 1019.97 1020.12 1020.21 1020.21 1020.14 1020.01 1019.85 1019.69 1019.57 1019.50 1019.49 1019.55 1019.67 1019.83 1020.01 1020.19 1020.37 1020.55 1020.73 1020.91 1021.11 1021.33 1021.56 1021.80 1022.05 1022.30 1022.54 1022.78 1023.01 1023.25
1017.52 1017.73 1017.97 1018.22 1018.46 1018.66 1018.82 1018.95 1019.07 1019.20 1019.36 1019.56 1019.77 1019.99 1020.17 1020.30 1020.36 1020.32 1020.21 1020.05 1019.87 1019.69 1019.56 1019.48 1019.47 1019.52 1019.62 1019.76 1019.91 1020.07 1020.24 1020.41 1020.59 1020.78 1020.99 1021.21 1021.44 1021.67 1021.90 1022.13 1022.35 1022.58 1022.82
1017.64 1017.87 1018.14 1018.42 1018.68 1018.88 1019.03 1019.13 1019.21 1019.29 1019.40 1019.56 1019.76 1019.98 1020.20 1020.38 1020.49 1020.51 1020.43 1020.29 1020.10 1019.89 1019.71 1019.57 1019.50 1019.48 1019.52 1019.60 1019.71 1019.83 1019.98 1020.13 1020.30 1020.48 1020.68 1020.88 1021.09 1021.30 1021.50 1021.70 1021.90 1022.10 1022.31
1017.71 1017.96 1018.26 1018.57 1018.85 1019.07 1019.22 1019.30 1019.35 1019.39 1019.46 1019.59 1019.78 1020.01 1020.25 1020.47 1020.63 1020.70 1020.67 1020.55 1020.37 1020.15 1019.94 1019.76 1019.62 1019.54 1019.51 1019.53 1019.59 1019.67 1019.78 1019.91 1020.07 1020.24 1020.42 1020.61 1020.80 1020.97 1021.14 1021.29 1021.44 1021.59 1021.75
1017.73 1018.00 1018.33 1018.67 1018.98 1019.22 1019.38 1019.47 1019.50 1019.52 1019.58 1019.69 1019.86 1020.09 1020.34 1020.59 1020.78 1020.88 1020.89 1020.80 1020.64 1020.43 1020.20 1019.99 1019.81 1019.68 1019.59 1019.55 1019.55 1019.58 1019.65 1019.75 1019.88 1020.03 1020.20 1020.38 1020.55 1020.70 1020.83 1020.93 1021.02 1021.11 1021.20
1017.70 1017.99 1018.34 1018.70 1019.04 1019.32 1019.50 1019.61 1019.65 1019.68 1019.73 1019.83 1019.99 1020.21 1020.46 1020.70 1020.91 1021.03 1021.06 1021.00 1020.86 1020.67 1020.44 1020.22 1020.01 1019.84 1019.70 1019.61 1019.55 1019.53 1019.56 1019.62 1019.72 1019.86 1020.01 1020.18 1020.34 1020.47 1020.57 1020.63 1020.66 1020.68 1020.70
1017.60 1017.90 1018.26 1018.65 1019.02 1019.33 1019.55 1019.69 1019.76 1019.81 1019.87 1019.97 1020.12 1020.33 1020.56 1020.79 1020.98 1021.11 1021.15 1021.11 1020.99 1020.81 1020.60 1020.39 1020.17 1019.98 1019.81 1019.67 1019.57 1019.50 1019.48 1019.50 1019.57 1019.68 1019.83 1019.99 1020.14 1020.26 1020.34 1020.37 1020.36 1020.32 1020.27
1017.43 1017.73 1018.10 1018.50 1018.88 1019.21 1019.47 1019.65 1019.77 1019.85 1019.94 1020.05 1020.20 1020.39 1020.59 1020.80 1020.96 1021.07 1021.11 1021.08 1020.98 1020.83 1020.65 1020.45 1020.25 1020.06 1019.88 1019.71 1019.56 1019.45 1019.38 1019.36 1019.39 1019.48 1019.61 1019.76 1019.91 1020.03 1020.11 1020.13 1020.09 1020.01 1019.92
1017.19 1017.48 1017.83 1018.22 1018.60 1018.94 1019.23 1019.45 1019.62 1019.75 1019.87 1020.01 1020.16 1020.34 1020.52 1020.69 1020.82 1020.91 1020.93 1020.90 1020.82 1020.70 1020.56 1020.40 1020.23 1020.05 1019.87 1019.69 1019.52 1019.37 1019.25 1019.18 1019.18 1019.23 1019.34 1019.48 1019.62 1019.75 1019.83 1019.86 1019.82 1019.73 1019.61
1016.89 1017.14 1017.46 1017.81 1018.17 1018.51 1018.81 1019.07 1019.28 1019.46 1019.63 1019.80 1019.97 1020.15 1020.31 1020.45 1020.56 1020.62 1020.63 1020.61 1020.54 1020.46 1020.36 1020.24 1020.12 1019.97 1019.81 1019.63 1019.44 1019.26 1019.10 1018.98 1018.92 1018.93 1018.99 1019.11 1019.24 1019.37 1019.46 1019.51 1019.48 1019.41 1019.29
1016.55 1016.75 1017.01 1017.31 1017.62 1017.94 1018.23 1018.51 1018.76 1018.99 1019.21 1019.42 1019.62 1019.81 1019.98 1020.10 1020.19 1020.24 1020.25 1020.22 1020.18 1020.14 1020.08 1020.02 1019.94 1019.84 1019.71 1019.54 1019.34 1019.13 1018.92 1018.75 1018.62 1018.57 1018.58 1018.65 1018.75 1018.86 1018.96 1019.01 1019.02 1018.97 1018.88
1016.21 1016.35 1016.53 1016.76 1017.01 1017.28 1017.56 1017.84 1018.11 1018.39 1018.65 1018.91 1019.16 1019.38 1019.56 1019.69 1019.78 1019.83 1019.84 1019.83 1019.81 1019.80 1019.79 1019.78 1019.75 1019.70 1019.60 1019.44 1019.24 1019.01 1018.75 1018.52 1018.32 1018.18 1018.11 1018.10 1018.15 1018.22 1018.30 1018.36 1018.38 1018.36 1018.31
1015.91 1015.98 1016.09 1016.24 1016.42 1016.64 1016.89 1017.15 1017.44 1017.75 1018.06 1018.36 1018.65 1018.91 1019.12 1019.28 1019.38 1019.44 1019.47 1019.48 1019.48 1019.50 1019.53 1019.56 1019.58 1019.57 1019.50 1019.36 1019.16 1018.90 1018.61 1018.31 1018.02 1017.79 1017.62 1017.51 1017.47 1017.47 1017.50 1017.53 1017.55 1017.56 1017.55
1015.70 1015.71 1015.75 1015.83 1015.95 1016.12 1016.32 1016.57 1016.86 1017.18 1017.52 1017.86 1018.19 1018.49 1018.74 1018.93 1019.06 1019.14 1019.18 1019.21 1019.24 1019.28 1019.34 1019.40 1019.45 1019.47 1019.42 1019.30 1019.10 1018.83 1018.49 1018.12 1017.76 1017.41 1017.13 1016.90 1016.74 1016.64 1016.59 1016.57 1016.57 1016.58 1016.59
1015.62 1015.60 1015.60 1015.63 1015.70 1015.81 1015.97 1016.19 1016.46 1016.78 1017.13 1017.50 1017.86 1018.19 1018.47 1018.70 1018.85 1018.95 1019.01 1019.06 1019.10 1019.15 1019.22 1019.29 1019.36 1019.39 1019.36 1019.26 1019.06 1018.77 1018.40 1017.97 1017.52 1017.08 1016.67 1016.31 1016.02 1015.80 1015.64 1015.54 1015.48 1015.47 1015.49
1015.71 1015.68 1015.67 1015.68 1015.71 1015.79 1015.92 1016.10 1016.34 1016.64 1016.98 1017.35 1017.71 1018.06 1018.36 1018.60 1018.78 1018.89 1018.96 1019.01 1019.05 1019.09 1019.16 1019.22 1019.29 1019.32 1019.29 1019.19 1018.99 1018.69 1018.30 1017.83 1017.31 1016.78 1016.26 1015.77 1015.35 1015.00 1014.72 1014.52 1014.39 1014.32 1014.32
1015.99 1015.99 1015.99 1016.00 1016.03 1016.09 1016.18 1016.32 1016.52 1016.78 1017.08 1017.42 1017.77 1018.11 1018.40 1018.65 1018.83 1018.94 1019.01 1019.04 1019.07 1019.09 1019.12 1019.16 1019.20 1019.22 1019.18 1019.07 1018.87 1018.57 1018.16 1017.67 1017.10 1016.50 1015.89 1015.31 1014.77 1014.29 1013.89 1013.58 1013.36 1013.23 1013.18
1016.47 1016.52 1016.57 1016.60 1016.64 1016.68 1016.75 1016.85 1016.99 1017.19 1017.43 1017.72 1018.02 1018.32 1018.59 1018.81 1018.97 1019.08 1019.12 1019.13 1019.11 1019.09 1019.08 1019.08 1019.07 1019.05 1018.99 1018.87 1018.66 1018.36 1017.95 1017.45 1016.87 1016.23 1015.57 1014.91 1014.28 1013.70 1013.20 1012.79 1012.48 1012.27 1012.15
1017.12 1017.24 1017.34 1017.42 1017.47 1017.51 1017.55 1017.60 1017.68 1017.81 1017.98 1018.19 1018.42 1018.66 1018.87 1019.05 1019.18 1019.24 1019.25 1019.21 1019.15 1019.07 1019.00 1018.93 1018.87 1018.80 1018.71 1018.56 1018.35 1018.04 1017.65 1017.15 1016.57 1015.93 1015.24 1014.55 1013.86 1013.22 1012.65 1012.16 1011.76 1011.47 1011.28
1017.91 1018.09 1018.24 1018.36 1018.43 1018.47 1018.48 1018.48 1018.49 1018.54 1018.62 1018.74 1018.89 1019.05 1019.20 1019.31 1019.38 1019.40 1019.36 1019.27 1019.14 1019.01 1018.86 1018.73 1018.60 1018.47 1018.33 1018.15 1017.92 1017.62 1017.23 1016.76 1016.20 1015.57 1014.89 1014.19 1013.48 1012.81 1012.19 1011.64 1011.18 1010.81 1010.55
Thickness
5731 5730 5729 5728 5727 5726 5725 5724 5724 5723 5722 5722 5721 5721 5719 5719 5718 5718 5717 5716 5716 5716 5715 5714 5713 5712 5712 5711 5710 5710 5709 5708 5707 5707 5707 5706 5706 5705 5704 5704 5703 5703 5702
5730 5728 5727 5726 5725 5725 5724 5723 5722 5721 5721 5720 5720 5720 5719 5718 5717 5716 5716 5716 5715 5715 5714 5713 5712 5711 5710 5710 5709 5708 5708 5707 5706 5705 5705 5704 5703 5703 5702 5702 5701 5701 5701
5728 5727 5726 5725 5724 5724 5723 5722 5721 5720 5719 5719 5719 5718 5718 5717 5716 5716 5715 5715 5715 5714 5713 5712 5711 5711 5709 5709 5708 5707 5706 5705 5704 5703 5703 5702 5702 5701 5701 5700 5700 5699 5699
5727 5726 5724 5724 5723 5723 5722 5720 5719 5718 5717 5717 5717 5717 5717 5716 5715 5715 5715 5715 5714 5714 5713 5712 5711 5710 5709 5708 5707 5706 5705 5704 5703 5702 5701 5701 5700 5699 5699 5698 5698 5698 5697
5725 5724 5723 5722 5722 5721 5720 5719 5717 5717 5716 5715 5716 5715 5715 5715 5715 5715 5715 5715 5714 5714 5713 5712 5711 5711 5709 5708 5707 5706 5705 5703 5702 5701 5700 5699 5699 5698 5698 5697 5697 5696 5696
5723 5723 5722 5721 5720 5719 5718 5718 5716 5715 5714 5714 5715 5714 5713 5714 5714 5714 5714 5715 5714 5714 5713 5712 5711 5711 5710 5709 5707 5706 5705 5703 5702 5701 5700 5699 5698 5697 5697 5696 5696 5695 5695
5721 5721 5721 5720 5719 5718 5717 5717 5715 5714 5712 5713 5712 5710 5711 5712 5713 5713 5714 5714 5714 5714 5713 5712 5711 5711 5710 5709 5708 5706 5705 5704 5703 5701 5700 5699 5698 5697 5696 5696 5695 5694 5694
5719 5719 5719 5718 5717 5716 5716 5716 5715 5713 5711 5711 5710 5707 5704 5706 5710 5713 5713 5713 5713 5713 5713 5712 5711 5711 5710 5709 5708 5707 5706 5704 5703 5702 5700 5699 5698 5697 5696 5695 5694 5694 5693
5717 5718 5718 5717 5716 5715 5715 5715 5715 5714 5711 5710 5710 5709 5704 5701 5704 5709 5711 5712 5712 5712 5712 5712 5711 5711 5710 5709 5708 5707 5706 5705 5703 5702 5701 5699 5698 5697 5696 5695 5695 5694 5693
5715 5716 5716 5715 5715 5714 5714 5714 5714 5714 5712 5710 5709 5709 5709 5708 5704 5703 5708 5710 5710 5711 5711 5711 5711 5710 5709 5708 5707 5707 5706 5705 5703 5702 5701 5700 5698 5697 5696 5695 5694 5694 5693
5713 5714 5714 5714 5713 5713 5713 5713 5713 5713 5712 5711 5709 5708 5707 5706 5706 5704 5702 5705 5707 5709 5710 5710 5709 5709 5708 5707 5706 5706 5705 5703 5702 5701 5700 5699 5698 5697 5696 5695 5694 5693 5693
5711 5712 5712 5712 5712 5712 5712 5711 5711 5712 5711 5710 5709 5709 5707 5706 5704 5703 5701 5701 5701 5705 5707 5708 5708 5707 5707 5706 5705 5704 5703 5702 5700 5699 5698 5697 5697 5696 5695 5695 5694 5693 5693
5709 5710 5711 5710 5710 5710 5710 5710 5709 5709 5709 5708 5708 5707 5706 5706 5705 5703 5701 5699 5698 5700 5702 5705 5706 5705 5705 5704 5703 5702 5701 5700 5698 5697 5696 5695 5694 5694 5693 5693 5693 5692 5692
5711 5711 5710 5710 5709 5709 5709 5708 5707 5706 5706 5706 5705 5704 5704 5703 5703 5702 5700 5697 5694 5694 5696 5700 5702 5702 5702 5701 5700 5699 5698 5697 5696 5695 5694 5693 5692 5691 5691 5690 5690 5690 5690
5711 5710 5709 5708 5708 5707 5707 5705 5705 5704 5703 5703 5702 5701 5700 5700 5699 5699 5698 5697 5693 5689 5689 5693 5696 5698 5698 5697 5697 5696 5695 5694 5693 5692 5691 5690 5689 5688 5688 5687 5687 5687 5687
5710 5709 5708 5707 5706 5705 5704 5702 5701 5701 5700 5699 5698 5697 5696 5695 5694 5694 5693 5692 5690 5688 5685 5688 5690 5692 5692 5693 5692 5692 5691 5690 5689 5688 5687 5687 5686 5686 5685 5685 5685 5684 5684
5708 5707 5707 5705 5704 5703 5701 5699 5698 5697 5695 5695 5694 5692 5691 5691 5689 5688 5687 5686 5684 5683 5681 5684 5684 5686 5686 5687 5687 5686 5686 5685 5685 5685 5684 5684 5683 5683 5682 5682 5682 5681 5681
5706 5706 5705 5703 5702 5700 5699 5697 5695 5694 5692 5690 5689 5688 5687 5686 5684 5683 5681 5680 5679 5678 5677 5677 5679 5679 5680 5680 5681 5680 5680 5680 5680 5681 5681 5680 5680 5680 5680 5679 5679 5679 5678
5702 5702 5701 5700 5699 5698 5696 5694 5692 5691 5689 5687 5685 5683 5682 5680 5678 5676 5675 5674 5673 5672 5670 5670 5671 5672 5672 5673 5673 5673 5673 5674 5675 5676 5676 5676 5676 5676 5676 5676 5676 5675 5675
5699 5699 5697 5696 5695 5693 5691 5690 5687 5685 5683 5681 5680 5677 5675 5672 5671 5670 5669 5667 5666 5664 5662 5662 5663 5663 5663 5664 5663 5664 5666 5667 5668 5670 5671 5671 5672 5672 5672 5672 5672 5672 5671
5695 5694 5692 5690 5688 5686 5685 5683 5681 5678 5676 5673 5670 5669 5667 5664 5663 5661 5660 5658 5657 5655 5654 5653 5655 5655 5655 5653 5653 5654 5656 5659 5661 5662 5663 5665 5665 5666 5666 5667 5666 5666 5666
5687 5686 5684 5682 5679 5678 5676 5674 5672 5669 5666 5663 5660 5657 5655 5652 5651 5650 5649 5647 5646 5644 5643 5642 5644 5644 5645 5644 5642 5642 5643 5644 5650 5655 5652 5655 5655 5657 5659 5659 5660 5660 5660
5679 5677 5674 5671 5668 5665 5664 5663 5661 5657 5654 5651 5648 5645 5643 5641 5639 5637 5636 5635 5633 5631 5631 5630 5631 5632 5631 5631 5630 5630 5630 5631 5636 5641 5638 5645 5647 5648 5650 5651 5652 5652 5653
5668 5665 5662 5659 5656 5653 5651 5650 5647 5644 5640 5636 5633 5631 5628 5626 5625 5624 5623 5622 5620 5619 5618 5617 5617 5618 5617 5616 5615 5616 5617 5620 5624 5626 5624 5629 5638 5639 5643 5643 5644 5644 5644
5655 5652 5649 5645 5642 5639 5637 5635 5633 5629 5625 5621 5619 5616 5614 5613 5611 5609 5609 5608 5607 5606 5606 5605 5604 5604 5603 5602 5601 5601 5602 5603 5611 5616 5613 5614 5623 5625 5631 5635 5635 5635 5635
5643 5639 5634 5629 5627 5624 5622 5621 5619 5615 5611 5608 5605 5602 5599 5597 5596 5595 5594 5593 5592 5592 5590 5590 5589 5589 5589 5588 5587 5586 5586 5587 5592 5597 5601 5598 5604 5604 5613 5623 5623 5622 5622